Regional Weather Roundup
Issued by NWS

Home | Current Version | Previous Version | Text Only | Print | Product List | Glossary On
Versions: 1 2 3 4 5 6 7 8 9 10 11 12 13 14 15 16 17 18 19 20 21 22 23 24 25 26 27 28 29 30 31 32 33 34 35 36 37 38 39 40 41 42 43 44 45 46 47 48 49 50
000
ASUS44 KFWD 250215
RWRTX
NORTH TEXAS HOURLY WEATHER ROUNDUP
NATIONAL WEATHER SERVICE FORT WORTH TX
800 PM CST SAT FEB 24 2018

NOTE: "FAIR" INDICATES FEW OR NO CLOUDS BELOW 12,000 FEET WITH NO
SIGNIFICANT WEATHER AND/OR OBSTRUCTIONS TO VISIBILITY.

TXZ118-119-250300-
DALLAS/FORT WORTH METROPLEX

CITY           SKY/WX    TMP DP  RH WIND       PRES   REMARKS
DFW AIRPORT    MOCLDY    52  45  77 NE3       29.92R
DALLAS LOVE    MOCLDY    55  47  74 CALM      29.94R
FTW MEACHAM    FAIR      54  45  71 CALM      29.93R
DAL-EXECUTIVE  FAIR      53  47  79 CALM      29.94R
FTW-ALLIANCE   MOCLDY    49  44  83 N3        29.94R
FTW-NAS-JRB    FAIR      54  44  69 CALM      29.94R
FTW-SPINKS     FAIR      51  44  78 CALM      29.95R
ARLINGTON      FAIR      52  46  80 CALM      29.94R
GRAND PRAIRIE  FAIR      55  45  68 CALM      29.95R
ADDISON        CLEAR     54  45  71 CALM      29.94R
MESQUITE       CLEAR     52  50  93 CALM      29.95R
LANCASTER      FAIR      53  48  83 CALM      29.95S
$$

TXZ091>094-102>105-117-120-121-131>134-250300-
NORTH CENTRAL TEXAS

CITY           SKY/WX    TMP DP  RH WIND       PRES   REMARKS
SHRMAN/DENISON FAIR      46  42  85 N3        29.96R
GAINESVILLE    FAIR      49  42  77 CALM      29.97R
BOWIE          FAIR      45  42  90 CALM      29.94R
BRIDGEPORT     FAIR      51  44  76 CALM      29.95R
DECATUR        FAIR      53  44  70 SE3       29.93R
DENTON         FAIR      52  45  77 CALM      29.94R
MCKINNEY       FAIR      51  47  86 S3        29.94R
BONHAM         FAIR      48  45  87 NW6       29.95R
GREENVILLE     FAIR      52  50  93 CALM      29.95R
ROCKWALL       FAIR      51  47  88 CALM      29.95R
TERRELL        FAIR      53  50  89 CALM      29.95R
WAXAHACHIE       N/A     52  47  84 CALM      29.95S
CLEBURNE       FAIR      55  48  76 SE6       29.96R
GRANBURY       FAIR      51  44  77 SW3       29.96R
$$

TXZ083>090-098>101-113>116-127>130-139>142-154-155-250300-
WESTERN NORTH TEXAS

CITY           SKY/WX    TMP DP  RH WIND       PRES   REMARKS
WICHITA FALLS  FAIR      48  40  73 NE10      29.95R
WF-KICKAPOO    FAIR      57  24  27 NW3       29.96R
VERNON         FAIR      48  38  66 NE5       29.96R
ABILENE        FAIR      52  27  38 NW8       29.97R
ABILENE-DYESS  FAIR      53  31  43 NW5       29.96R
GRAHAM           N/A     56  26  31 NW3       29.94R
BRECKENRIDGE   FAIR      58  27  30 N5        29.96R
CISCO          MOCLDY    54  36  50 NW5       29.96R
EASTLAND       FAIR      53  36  53 NW8       29.96R
RANGER         FAIR      47  38  69 W5        29.95R
MINERAL WELLS  FAIR      54  44  69 SE3       29.93R
STEPHENVILLE   FAIR      57  41  55 CALM      29.97R
COMANCHE       FAIR      62  37  40 CALM      29.95R
BROWNWOOD      FAIR      54  41  62 CALM      29.95R
COLEMAN        FAIR      57  35  44 NW3       29.95S
$$

TXZ143>147-156>162-174-175-250300-
CENTRAL TEXAS

CITY           SKY/WX    TMP DP  RH WIND       PRES   REMARKS
WACO           CLOUDY    56  52  86 E5        29.96R
WACO-TSTC      MOCLDY    57  54  88 N3        29.96R
WACO-MCGREGOR  CLOUDY    57  55  93 CALM      29.96R
HILLSBORO      FAIR      55  49  81 NE5       29.95R
CORSICANA      FAIR      56  53  90 SE5       29.97R
MEXIA          MOCLDY    58  52  82 N8        29.95R
HEARNE         MOCLDY    64  56  75 N10G18    29.93R
CAMERON        MOCLDY    62  53  72 N8        29.94R
TEMPLE         MOCLDY    57  55  93 N8        29.95R
KILLEEN        FAIR      60  56  88 NE7       29.94R
KILLEEN-SKYLRK MOCLDY    59  57  93 NE7       29.95R
GATESVILLE     FAIR      59  48  67 CALM      29.97R
HAMILTON       FAIR      59  43  55 E5        29.96R
LAMPASAS       FAIR      60  48  63 NE3       29.95R
$$

TXZ095>097-106>112-122>126-135>138-148>153-164>167-250300-
EAST TEXAS

CITY           SKY/WX    TMP DP  RH WIND       PRES   REMARKS
PARIS          FAIR      50  47  89 W5        29.95R
SULPHUR SPRNGS FAIR      51  49  95 CALM      29.96R
MOUNT PLEASANT FAIR      54  53  96 CALM      29.95R
GILMER         CLOUDY    55  54  95 CALM      29.95R
MINEOLA        CLOUDY    54  52  94 CALM      29.95R
TYLER          CLOUDY    56  53  90 CALM      29.95R
LONGVIEW       NOT AVBL
MARSHALL       CLOUDY    55  53  92 CALM      29.97R
ATHENS         CLOUDY    54  52  94 CALM      29.95R
PALESTINE      CLOUDY    57  55  93 CALM      29.96R
JACKSONVILLE   CLOUDY    56  55  95 N5        29.96R
HENDERSON      CLOUDY    56  55  97 CALM      29.97R
CENTER         LGT RAIN  70  65  85 NW8       29.93R
NACOGDOCHES    LGT RAIN  64  61  88 NW14      29.94R
LUFKIN         CLOUDY    69  68  96 S3        29.91R
$$

SUPPLEMENTAL OBSERVATIONS (NWS FORT WORTH AREA)

CITY           SKY/WX    TMP DP  RH WIND       PRES   REMARKS
DENISON DAM      N/A     52  45  76 CALM        N/A
CADDO GRASSLND   N/A     46  45  93 CALM        N/A
PAT MAYSE LAKE   N/A     52  50  93 NW2         N/A
GREENVILLE       N/A     52  48  87 W2          N/A
CEDAR HILL       N/A     54  46  76 CALM        N/A
LBJ GRASSLAND    N/A     52  43  71 E3          N/A
POSSUM KINGDOM   N/A     57  30  35 NW6         N/A
GRANBURY         N/A     48  43  81 SW2         N/A
COMANCHE         N/A     61  36  39 NW3         N/A
MCGREGOR         N/A     57  52  82 E5          N/A
TEMPLE           N/A     59  54  82 NE13        N/A
LAKE LIMESTONE   N/A     57  52  82 N5G16       N/A
ATHENS           N/A     55  52  88 E1          N/A
$$

SUPPLEMENTAL OBSERVATIONS (NWS NORMAN AREA)

CITY           SKY/WX    TMP DP  RH WIND       PRES   REMARKS
GOODLETT         N/A     47  14  27 SW8       29.95R
ODELL            N/A     46  41  80 NE9       29.97R
CROWELL          N/A     51  15  23 W8        29.97R
KNOX CITY        N/A     47  21  35 NW8       29.98R
SEYMOUR          N/A     47  33  58 W6        29.97R
MILLERS CREEK    N/A     48  28  46 W8          N/A
$$

SUPPLEMENTAL OBSERVATIONS (NWS SAN ANGELO AREA)

CITY           SKY/WX    TMP DP  RH WIND       PRES   REMARKS
WEINERT          N/A     48  29  48 W6        29.98R
HASKELL          N/A     48  28  45 NW7       29.98R
THROCKMORTON     N/A     51  30  44 W7        29.97R
STAMFORD         N/A     53  29  40 W7        29.98R
CLYDE            N/A     54  26  33 NW6       29.99R
HAMBY            N/A     55  28  35 N3          N/A
IVIE RESERVOIR   N/A     57  37  47 SE5         N/A
COLORADO BEND    N/A     63  50  63 NE1         N/A
$$

SUPPLEMENTAL OBSERVATIONS (NWS SHREVEPORT AREA)

CITY           SKY/WX    TMP DP  RH WIND       PRES   REMARKS
CLARKSVILLE      N/A     52  46  82 NW3         N/A
TEXARKANA        N/A     55  54  94 SW1         N/A
LINDEN           N/A     55  52  88 S1          N/A
CADDO LAKE       N/A     55  54  94 CALM        N/A
GILMER           N/A     55  54  94 W2          N/A
HENDERSON        N/A     55  54  94 NW3         N/A
LUFKIN           N/A     70  68  94 MISG        N/A
N SABINE NF      N/A     72  66  83 MISG        N/A
S SABINE NF      N/A     70  66  88 SW2         N/A
$$

SUPPLEMENTAL OBSERVATIONS ARE A COLLECTION OF AUTOMATED INSTRUMENTS
THAT ARE MAINTAINED BY A VARIETY OF FEDERAL AND STATE AGENCIES.
CERTAIN ELEMENTS...SUCH AS HUMIDITY VALUES AND SUSTAINED WIND
SPEEDS...MAY BE APPROXIMATED.




USA.gov is the U.S. government's official web portal to all federal, state and local government web resources and services.